Wind_Speed
22 20 20 21 21 22 24 26 27 25 24 24 22 21 23 23 21 21 21 21 21 22 22 22 22 22 22 22 21 21 19 19 18 18 17 16 16 16 15 14 13 13
19 18 19 21 23 24 24 26 27 25 24 25 21 17 19 19 18 19 20 21 21 22 22 23 22 22 22 22 21 20 20 19 19 18 17 17 16 17 16 14 14 14
17 16 16 20 22 23 24 25 27 26 24 25 21 15 15 16 16 19 20 21 22 22 23 23 22 22 22 21 20 20 20 20 19 18 17 16 17 17 16 15 15 15
15 15 16 18 19 21 23 24 25 26 26 26 22 17 15 14 15 18 20 22 22 22 22 22 22 23 22 20 20 20 20 20 19 18 17 17 17 17 16 15 16 16
15 16 17 18 18 19 22 24 24 24 25 25 23 19 15 13 15 18 20 22 22 22 21 22 22 22 21 20 20 21 21 20 19 18 18 18 18 17 16 16 17 17
17 17 18 19 19 20 22 23 23 23 23 23 21 18 16 14 15 17 20 21 22 22 22 22 23 22 21 21 21 21 20 19 19 19 19 19 18 18 18 17 17 16
16 15 16 18 19 20 22 22 22 22 22 21 19 18 16 15 17 18 19 20 21 22 22 22 21 20 21 21 21 21 20 19 20 20 19 18 18 19 19 19 17 16
14 13 13 16 18 18 20 21 22 21 20 21 19 18 17 16 18 18 19 20 21 21 21 21 20 20 21 22 21 21 20 20 19 19 19 19 18 19 20 19 18 17
15 13 13 16 18 17 18 20 21 20 19 20 19 18 17 17 18 19 20 21 21 21 21 21 21 21 22 23 22 21 21 20 19 19 19 19 19 19 20 19 19 19
15 14 14 15 16 16 16 18 20 20 20 20 20 19 19 19 19 20 21 22 23 22 22 22 23 22 23 24 23 22 21 20 20 19 19 19 18 18 19 19 19 19
16 15 15 15 14 14 15 16 18 21 20 21 21 21 21 21 21 22 22 23 24 24 22 23 23 22 23 24 23 22 21 20 19 19 18 18 18 17 18 18 18 18
15 15 15 16 15 15 16 16 17 19 19 19 20 21 22 22 22 23 23 23 24 22 22 24 22 21 22 24 23 22 22 20 20 19 19 18 17 17 17 17 16 15
15 15 15 15 15 16 18 18 18 18 18 18 20 22 23 24 24 24 23 23 22 21 23 24 22 21 22 23 23 22 22 21 20 20 20 19 18 17 17 16 15 14
16 15 15 14 13 16 18 20 20 20 19 18 20 24 25 24 24 24 24 24 22 22 25 24 22 22 22 22 22 22 22 21 20 20 20 19 18 18 17 16 15 13
20 17 16 15 12 14 17 19 20 20 20 19 21 26 27 26 25 25 26 25 24 24 25 24 23 23 23 22 22 22 22 21 19 19 19 19 19 18 17 16 14 13
24 18 16 15 13 12 14 17 19 19 20 21 23 28 29 29 28 28 27 26 24 25 26 24 23 23 23 23 23 22 21 21 20 19 18 18 19 18 18 17 15 14
27 22 19 18 14 11 13 15 17 18 19 20 24 28 30 30 30 30 29 27 26 27 26 24 24 24 24 25 24 22 21 21 20 19 19 20 19 18 18 17 16 14
32 26 22 20 16 10 10 12 14 16 18 21 25 29 30 32 32 31 30 29 28 28 26 24 24 24 24 25 24 23 22 20 19 19 20 21 20 19 18 17 16 14
35 31 26 23 19 13 9 10 13 16 18 22 27 31 32 33 34 33 31 30 29 28 26 25 25 24 23 24 23 23 22 21 20 19 20 21 20 19 17 17 15 13
36 34 31 27 22 18 13 10 13 17 21 25 30 33 33 32 33 33 31 31 31 29 28 28 27 24 23 23 23 23 23 22 21 20 20 20 20 19 18 17 15 13
36 35 34 32 27 23 17 13 15 19 23 28 31 32 30 31 34 33 32 33 32 30 30 30 28 25 24 25 24 24 23 22 21 21 20 20 20 20 19 17 16 14
35 35 35 34 31 26 20 16 16 20 24 27 29 31 32 33 36 35 33 33 33 32 33 32 29 26 26 26 26 24 22 21 21 20 21 21 21 20 19 18 16 14
32 34 35 35 33 29 23 17 14 17 22 24 25 30 36 37 38 38 36 35 35 35 34 33 30 27 27 27 26 25 22 21 21 21 21 22 22 21 20 18 17 15
29 31 33 35 35 31 25 19 13 11 15 18 18 24 33 36 36 37 37 35 36 37 35 33 32 29 28 28 27 26 23 22 22 21 20 21 22 22 21 20 18 17
26 28 29 32 33 31 26 19 12 7 6 10 11 15 24 30 31 32 32 30 30 32 32 33 32 30 29 29 28 27 24 23 22 21 20 21 21 21 21 20 19 18
24 25 27 30 31 28 25 19 12 6 2 7 10 12 17 23 24 25 26 26 25 26 27 28 29 29 28 27 26 25 24 22 22 22 21 20 20 21 22 22 21 19
Wind_Direction
285 280 282 280 269 266 271 275 272 269 267 263 257 250 242 237 231 224 217 217 222 225 225 226 224 221 221 219 217 221 225 226 226 225 224 221 222 224 223 223 225 226
280 273 273 273 268 265 269 276 277 276 273 267 263 258 252 251 247 237 226 220 223 227 225 225 225 223 222 221 218 220 225 226 225 225 223 219 220 222 222 224 226 227
284 280 277 271 269 271 274 278 280 280 278 272 266 259 252 250 245 238 233 227 223 224 225 223 221 221 222 221 219 221 224 224 223 224 222 220 219 220 220 224 226 225
285 284 281 273 270 274 276 277 278 280 281 278 273 266 254 240 230 228 231 232 228 222 221 220 217 218 220 221 222 221 221 222 222 222 222 222 219 217 218 223 225 223
285 281 278 272 265 265 270 273 275 276 279 280 278 274 263 240 226 227 227 231 232 226 219 216 216 218 218 220 220 218 219 222 223 222 223 223 219 217 218 222 223 222
292 291 288 280 267 262 266 271 272 270 270 273 273 269 261 238 224 228 228 228 230 229 226 220 215 216 219 219 216 215 218 221 222 223 223 222 220 219 220 222 222 221
295 297 296 288 272 264 268 269 268 267 268 270 267 261 253 234 221 222 224 227 229 229 233 229 218 215 219 218 216 217 219 220 221 223 223 223 221 221 222 223 222 222
300 298 294 288 277 268 269 266 261 261 264 267 263 256 247 232 223 220 218 224 229 230 234 232 221 217 219 219 218 219 219 219 219 221 223 224 223 222 223 223 223 224
299 297 289 282 276 269 266 263 260 256 257 259 258 253 245 231 224 222 217 219 225 230 234 232 223 220 221 220 220 221 221 219 218 219 222 225 226 226 226 225 225 226
293 292 287 279 277 277 272 265 259 254 253 255 255 250 240 230 226 223 217 216 220 227 232 231 223 220 222 222 221 223 223 221 220 221 221 224 227 229 230 229 228 228
301 290 281 274 274 279 278 271 262 257 256 255 255 249 238 230 228 222 215 214 218 223 229 229 223 220 223 223 223 225 226 223 223 223 223 224 227 229 231 232 231 230
317 303 286 273 266 265 265 265 262 259 256 251 249 247 239 233 229 222 214 214 218 222 228 228 221 219 223 225 226 227 225 222 222 223 223 224 224 226 228 229 226 223
325 319 305 284 268 260 258 256 252 252 253 247 239 236 233 230 229 223 216 217 219 223 229 226 218 218 224 225 226 225 221 219 221 221 220 219 219 221 221 219 215 212
335 330 326 308 275 257 253 252 248 247 251 248 234 226 223 222 224 222 218 218 218 220 225 221 213 216 222 222 220 218 218 220 221 217 213 211 212 211 212 213 209 204
347 338 339 334 299 262 249 250 250 247 247 245 231 220 216 216 217 217 219 218 214 215 219 214 209 215 220 218 215 213 216 219 217 211 206 204 203 202 205 206 199 194
355 344 344 345 323 281 256 252 253 248 245 244 231 219 215 214 212 213 218 216 211 214 216 209 209 217 219 216 213 212 215 217 213 208 202 199 199 201 201 198 192 192
2 351 345 347 335 295 264 258 257 250 246 245 235 221 216 213 208 209 214 213 210 215 214 208 209 216 217 216 213 213 216 215 208 203 199 197 198 201 201 198 197 200
7 359 350 352 349 312 267 260 266 261 254 250 240 225 217 211 205 205 210 210 209 212 211 207 208 210 212 215 215 213 212 207 200 198 197 196 198 199 200 200 202 207
6 4 359 358 355 337 297 270 274 272 266 261 248 231 220 212 205 204 207 207 206 209 209 205 202 201 206 211 211 208 204 198 195 196 195 196 197 197 199 202 205 212
4 5 6 2 355 342 322 293 279 270 265 262 252 236 222 212 205 203 203 200 202 206 206 200 196 197 203 206 204 203 200 198 198 199 196 196 197 197 201 205 206 211
4 5 8 6 357 342 325 300 279 264 253 248 244 237 226 212 204 203 200 197 199 202 200 197 196 197 201 203 203 203 201 201 201 200 199 198 197 200 203 203 205 210
7 6 10 10 1 346 329 306 281 264 250 239 232 233 229 214 203 200 198 196 198 198 198 198 198 200 202 203 204 204 203 202 201 200 201 200 198 200 201 201 205 209
10 8 10 14 9 355 339 318 292 269 252 235 220 220 220 208 199 197 196 196 199 199 200 202 200 201 204 203 203 206 205 203 201 200 202 202 201 202 203 204 206 206
14 10 11 17 16 6 350 330 310 284 255 233 210 206 208 202 197 195 194 197 201 198 200 205 202 200 201 200 201 205 207 206 206 206 205 205 205 206 206 207 205 202
19 15 15 20 21 13 1 344 328 316 260 224 194 185 191 192 193 193 191 192 194 190 191 197 197 196 197 197 198 202 207 209 210 210 209 207 207 208 206 204 202 199
23 23 21 25 28 24 16 4 356 13 107 171 155 147 168 179 182 185 184 181 182 184 184 185 186 188 191 193 194 199 204 209 213 214 212 208 208 209 206 200 197 195
Height
1501 1502 1503 1504 1504 1504 1505 1506 1506 1506 1508 1508 1509 1510 1511 1512 1514 1515 1516 1518 1520 1522 1525 1528 1529 1530 1533 1534 1535 1536 1538 1539 1540 1541 1542 1543 1545 1546 1547 1549 1550 1551
1500 1500 1502 1503 1503 1503 1504 1505 1506 1506 1507 1507 1508 1510 1510 1512 1515 1516 1516 1517 1519 1521 1524 1526 1527 1529 1531 1532 1533 1534 1536 1537 1538 1539 1541 1542 1543 1544 1546 1547 1548 1550
1500 1500 1500 1501 1501 1502 1502 1504 1505 1506 1507 1506 1507 1508 1509 1510 1513 1515 1516 1517 1517 1520 1522 1524 1525 1527 1528 1530 1531 1533 1534 1535 1537 1538 1539 1540 1542 1543 1544 1545 1547 1548
1499 1499 1499 1498 1499 1500 1500 1501 1502 1504 1506 1507 1507 1507 1506 1508 1510 1512 1515 1516 1516 1518 1520 1522 1523 1525 1526 1528 1530 1532 1533 1534 1535 1536 1538 1539 1540 1541 1543 1544 1545 1547
1499 1499 1498 1497 1497 1498 1498 1498 1499 1501 1503 1505 1506 1506 1505 1507 1508 1510 1512 1514 1515 1517 1519 1520 1522 1523 1524 1526 1528 1530 1531 1532 1534 1535 1537 1538 1539 1540 1541 1543 1544 1545
1498 1498 1497 1496 1496 1496 1497 1496 1497 1498 1499 1501 1503 1504 1504 1505 1506 1508 1510 1512 1513 1516 1517 1518 1520 1521 1523 1525 1526 1528 1530 1531 1533 1534 1536 1537 1538 1539 1540 1541 1542 1544
1496 1496 1496 1495 1495 1495 1495 1495 1495 1496 1497 1499 1500 1501 1502 1503 1504 1506 1508 1510 1512 1514 1516 1517 1518 1520 1521 1523 1525 1527 1529 1530 1532 1533 1534 1536 1537 1538 1539 1540 1541 1542
1495 1495 1494 1494 1493 1493 1494 1494 1494 1495 1495 1497 1498 1499 1500 1501 1502 1503 1505 1508 1510 1512 1514 1516 1517 1519 1520 1522 1524 1526 1527 1528 1530 1531 1532 1534 1535 1536 1538 1539 1540 1541
1493 1493 1492 1492 1491 1491 1491 1492 1493 1494 1494 1495 1496 1497 1498 1499 1500 1501 1503 1505 1508 1511 1513 1514 1516 1517 1519 1521 1522 1524 1525 1526 1528 1529 1530 1532 1534 1535 1536 1537 1538 1539
1491 1491 1490 1490 1489 1489 1489 1490 1491 1492 1492 1492 1494 1495 1496 1497 1498 1499 1501 1503 1505 1508 1510 1512 1513 1515 1517 1519 1521 1522 1524 1525 1526 1527 1528 1530 1532 1534 1535 1536 1537 1538
1490 1490 1489 1489 1488 1488 1489 1489 1489 1490 1490 1491 1493 1493 1494 1496 1497 1498 1499 1501 1503 1505 1508 1510 1511 1513 1516 1518 1519 1521 1522 1523 1524 1525 1526 1528 1530 1532 1533 1534 1536 1537
1488 1488 1487 1487 1487 1487 1487 1487 1487 1488 1489 1490 1491 1492 1493 1494 1495 1496 1497 1499 1501 1503 1505 1507 1509 1512 1514 1515 1517 1519 1520 1521 1522 1523 1524 1526 1528 1530 1532 1533 1534 1535
1487 1485 1485 1485 1485 1485 1485 1484 1484 1485 1486 1487 1488 1489 1491 1492 1494 1496 1497 1498 1499 1501 1503 1505 1507 1510 1512 1514 1515 1517 1519 1520 1521 1522 1523 1524 1526 1528 1530 1531 1532 1533
1485 1484 1482 1482 1482 1482 1482 1481 1481 1481 1482 1484 1485 1486 1487 1489 1492 1494 1496 1497 1498 1499 1501 1503 1505 1508 1510 1512 1513 1515 1517 1518 1519 1520 1521 1523 1525 1527 1528 1529 1530 1532
1484 1482 1480 1479 1479 1479 1479 1478 1478 1478 1479 1480 1481 1482 1484 1485 1487 1490 1493 1494 1495 1497 1499 1501 1503 1506 1508 1510 1511 1513 1515 1516 1517 1519 1520 1522 1523 1525 1526 1527 1529 1530
1482 1480 1479 1477 1477 1476 1476 1475 1475 1475 1476 1477 1478 1479 1481 1482 1484 1487 1489 1491 1492 1494 1496 1498 1501 1504 1506 1508 1510 1511 1513 1514 1516 1517 1518 1520 1522 1523 1525 1526 1528 1529
1482 1479 1477 1475 1474 1474 1474 1473 1473 1473 1473 1474 1475 1476 1478 1479 1481 1483 1486 1488 1490 1492 1494 1496 1499 1501 1504 1506 1508 1510 1512 1513 1514 1515 1517 1519 1520 1522 1524 1526 1527 1528
1481 1479 1476 1474 1473 1472 1471 1471 1471 1471 1471 1472 1473 1474 1475 1477 1478 1480 1483 1485 1488 1490 1492 1494 1497 1499 1502 1504 1506 1508 1510 1512 1513 1514 1515 1517 1519 1521 1523 1525 1527 1528
1482 1479 1476 1473 1472 1472 1471 1470 1470 1470 1470 1471 1471 1471 1472 1474 1476 1478 1481 1483 1485 1488 1490 1493 1496 1498 1501 1503 1505 1507 1509 1510 1512 1513 1514 1516 1518 1520 1522 1524 1526 1527
1482 1479 1476 1473 1472 1471 1471 1470 1469 1469 1469 1469 1468 1468 1470 1473 1475 1477 1479 1481 1484 1486 1489 1491 1494 1497 1500 1502 1504 1506 1507 1509 1510 1511 1513 1514 1517 1519 1521 1523 1524 1525
1482 1479 1476 1473 1472 1471 1470 1469 1468 1467 1467 1467 1467 1467 1469 1472 1474 1476 1478 1480 1482 1485 1487 1490 1493 1495 1498 1501 1503 1505 1506 1508 1509 1510 1512 1514 1516 1518 1520 1522 1523 1524
1484 1481 1477 1474 1472 1470 1469 1468 1467 1466 1465 1465 1466 1467 1468 1469 1471 1474 1476 1479 1481 1484 1486 1489 1491 1494 1497 1499 1502 1503 1505 1506 1508 1509 1511 1513 1515 1517 1519 1520 1522 1523
1486 1483 1479 1476 1473 1471 1469 1467 1466 1465 1464 1463 1464 1465 1464 1465 1467 1470 1473 1477 1479 1482 1485 1487 1489 1492 1495 1498 1500 1502 1503 1505 1507 1508 1510 1512 1513 1515 1517 1519 1521 1522
1489 1486 1482 1478 1475 1472 1470 1468 1466 1465 1464 1463 1463 1464 1463 1463 1465 1467 1470 1474 1477 1479 1482 1485 1488 1491 1494 1496 1499 1501 1502 1504 1505 1507 1509 1510 1512 1514 1516 1518 1519 1520
1492 1489 1485 1481 1478 1475 1473 1470 1467 1466 1465 1464 1465 1465 1463 1462 1465 1468 1470 1473 1476 1478 1480 1483 1485 1489 1492 1495 1497 1499 1501 1503 1504 1506 1508 1509 1511 1512 1514 1516 1518 1519
1494 1491 1488 1485 1482 1479 1477 1474 1471 1469 1468 1467 1467 1468 1466 1464 1467 1470 1472 1474 1477 1480 1482 1483 1485 1488 1491 1494 1497 1499 1500 1502 1503 1505 1506 1508 1510 1511 1512 1514 1516 1518